DON PEDRO RESERVOIR (DNP)

Elevation: 830' · TUOLUMNE R basin · Operator: Turlock Irrigation District

Provisional data, subject to change.
Query executed Tuesday at 8:13:20   clock

Select a sensor type for a plot of data.
Note: Reservoir Flows are daily averages.

Earlier

Date RES ELE    STORAGE    RES CHG    TOC STO    ABV TOC    OUTFLOW    INFLOW    PPT INC   
 FEET   AF   AF   AF   AF   CFS   CFS   INCHES  
06/29/2015 693.25 758996 -3779 2030000 -1271004 1729 141 0.00
06/30/2015 692.82 755855 -2827 2030000 -1274145 1737 153 0.00
07/01/2015 692.23 752723 -3445 2030000 -1277277 2165 586 0.00
07/02/2015 691.91 750223 -2812 2030000 -- 1737 476 0.00
07/03/2015 691.70 749599 -1559 2030000 -- 2015 1700 0.00
07/04/2015 691.07 745862 -3733 2030000 -- 2113 229 0.00
07/05/2015 690.98 745240 -621 2030000 -1286002 1236 922 0.00
07/06/2015 690.76 743378 -2172 2030000 -1286622 1339 400 0.00
07/07/2015 690.55 742757 -1860 2030000 -1287243 1759 1446 0.00
07/08/2015 690.11 739661 -4069 2030000 -1290339 1815 254 0.00
07/09/2015 689.75 737191 -3395 2030000 -- 1906 661 0.00
07/10/2015 689.40 734725 -3081 2030000 -- 1811 568 0.00
07/11/2015 689.10 733495 -1537 2030000 -- 1705 1085 0.00
07/12/2015 688.76 731038 -2148 2030000 -- 1799 560 0.00
07/13/2015 688.43 728587 -2757 2030000 -1301413 1846 610 0.00
07/14/2015 688.15 727975 -1835 2030000 -- 1519 1210 0.00
07/15/2015 687.93 725530 -2750 2030000 -1304470 1481 249 0.00
07/16/2015 687.52 723701 -1829 2030000 -1306299 2019 1097 0.00
07/17/2015 687.07 721266 -3954 2030000 -- 2070 842 0.00
07/18/2015 686.71 718836 -911 2030000 -- 1873 648 0.00
07/19/2015 686.41 716412 -2726 2030000 -- 1745 523 0.00
07/20/2015 686.15 715807 -1512 2030000 -1314193 1474 1169 0.00
07/21/2015 685.87 713390 -2417 2030000 -1316610 1705 486 0.00
07/22/2015 685.54 711581 -2412 2030000 -1318419 1551 639 0.00
07/23/2015 685.38 710376 -1205 2030000 -1319624 1453 845 0.00
07/24/2015 685.38 710376 -3005 2030000 -- 1453 560 0.00
07/25/2015 684.62 706171 -1499 2030000 -- 1594 989 0.00
07/26/2015 684.35 704374 -2096 2030000 -- 1808 902 0.00
07/27/2015 683.85 701685 -2689 -- -- -- -- --
07/28/2015 -- -- -- -- -- -- -- --

Later | Latest

Warning! This data is preliminary and subject to revision.

Show DNP Map | Plot DNP Data | 1 Month DNP Data | Real-Time DNP Data | DNP Info